Weather History for KJST - October, 2014

Change the Weather History Date:

Tuesday, October 21, 2014

  Actual Average Record
Temperature  
Mean Temperature 49 °F 48 °F  
Max Temperature 53 °F 57 °F 85 °F (1963)
Min Temperature 45 °F 40 °F 20 °F (1972)
Degree Days  
Heating Degree Days 16 17  
Month to date heating degree days 248 295  
Since 1 July heating degree days 481 513  
Cooling Degree Days 0 0  
Month to date cooling degree days 0 0  
Year to date cooling degree days 341 382  
Moisture  
Dew Point 44 °F    
Average Humidity 88    
Maximum Humidity 100    
Minimum Humidity 76    
Precipitation  
Precipitation 0.20 in 0.09 in 1.18 in (1944)
Month to date precipitation 2.54 2.13  
Year to date precipitation 29.64 26.42  
Sea Level Pressure  
Sea Level Pressure 29.88 in    
Wind  
Wind Speed 8 mph (West)    
Max Wind Speed 16 mph    
Max Gust Speed 21 mph    
Visibility 7 miles    
Events Fog , Rain    
T = Trace of Precipitation, MM = Missing Value Source: NWS Daily Summary

Daily Weather History Graph

Daily Weather History Graph

Search for Another Location

Airport or City:

Trip Planner

Search our weather history database for the weather conditions in past years. The results will help you decide how hot, cold, wet, or windy it might be!

Date:

Astronomy

Oct. 21, 2014 Rise Set
Actual Time 7:32 AM EDT 6:26 PM EDT
Civil Twilight 7:04 AM EDT 6:54 PM EDT
Nautical Twilight 6:33 AM EDT 7:26 PM EDT
Astronomical Twilight 6:01 AM EDT 7:57 PM EDT
Moon 5:14 AM EDT (10/21) 5:20 PM EDT (10/21)
Length of Visible Light 11h 49m
Length of Day
10h 54m
Waning Crescent, 5% of the Moon is Illuminated
Oct 21
Waning Crescent
Oct 23
New
Oct 30
First Quarter
Nov 6
Full
Nov 14
Last Quarter

Hourly Weather History & Observations

Time (EDT) Temp. Windchill Dew Point Humidity Pressure Visibility Wind Dir Wind Speed Gust Speed Precip Events Conditions
12:54 AM 48.9 °F - 41.0 °F 74% 29.88 in 10.0 mi SSW 4.6 mph - N/A   Overcast
1:16 AM 48.9 °F - 41.0 °F 74% 29.86 in 10.0 mi SSW 5.8 mph - N/A   Overcast
1:44 AM 48.9 °F - 42.1 °F 77% 29.85 in 10.0 mi South 5.8 mph - N/A   Overcast
1:54 AM 48.9 °F - 42.1 °F 77% 29.86 in 10.0 mi SSW 6.9 mph - N/A   Overcast
2:54 AM 48.9 °F - 42.1 °F 77% 29.86 in 10.0 mi SSW 9.2 mph - N/A   Overcast
3:54 AM 48.0 °F - 42.1 °F 80% 29.85 in 10.0 mi WSW 6.9 mph - N/A   Overcast
4:31 AM 48.0 °F - 42.1 °F 80% 29.83 in 10.0 mi SW 6.9 mph - N/A   Overcast
4:54 AM 48.0 °F - 43.0 °F 83% 29.85 in 10.0 mi SW 8.1 mph - N/A   Overcast
5:11 AM 46.9 °F - 43.0 °F 86% 29.83 in 10.0 mi SW 5.8 mph - N/A   Overcast
5:54 AM 46.9 °F - 44.1 °F 90% 29.84 in 5.0 mi SSW 4.6 mph - 0.00 in Rain Light Rain
6:07 AM 46.9 °F - 45.0 °F 93% 29.83 in 3.0 mi SW 5.8 mph - 0.01 in Rain Light Rain
6:16 AM 46.9 °F - 45.0 °F 93% 29.83 in 2.0 mi WSW 8.1 mph - 0.01 in Rain Light Rain
6:25 AM 46.9 °F - 45.0 °F 93% 29.83 in 0.8 mi WSW 6.9 mph - 0.01 in Rain Light Rain
6:37 AM 46.9 °F - 45.0 °F 93% 29.84 in 0.2 mi WSW 10.4 mph - 0.01 in Fog , Rain Light Rain
6:54 AM 46.9 °F - 45.0 °F 93% 29.85 in 0.2 mi West 6.9 mph - 0.02 in Fog Fog
7:42 AM 46.9 °F - 46.0 °F 97% 29.85 in 0.5 mi West 8.1 mph - N/A Fog Fog
7:54 AM 46.9 °F - 46.0 °F 97% 29.86 in 0.8 mi West 6.9 mph - N/A   Mist
8:22 AM 46.9 °F - 46.0 °F 97% 29.86 in 0.2 mi WSW 8.1 mph - N/A Fog Fog
8:54 AM 46.9 °F - 46.0 °F 97% 29.88 in 0.5 mi West 8.1 mph - 0.00 in Fog Fog
9:18 AM 46.9 °F - 46.0 °F 97% 29.87 in 0.2 mi West 8.1 mph - N/A Fog Fog
9:51 AM 46.4 °F 42.9 °F 46.4 °F 100% 29.86 in 1.0 mi WSW 6.9 mph - N/A   Mist
9:54 AM 46.9 °F - 46.0 °F 97% 29.89 in 1.2 mi WSW 6.9 mph - N/A   Overcast
10:06 AM 46.9 °F - 46.0 °F 97% 29.87 in 2.0 mi West 6.9 mph - N/A   Overcast
10:14 AM 48.0 °F - 46.0 °F 93% 29.87 in 1.8 mi West 6.9 mph - N/A   Overcast
10:23 AM 46.9 °F - 46.0 °F 97% 29.87 in 2.5 mi West 8.1 mph - N/A   Overcast
10:29 AM 46.9 °F - 46.0 °F 97% 29.87 in 3.0 mi WSW 6.9 mph - N/A   Overcast
10:54 AM 46.9 °F - 46.0 °F 97% 29.88 in 3.0 mi WSW 6.9 mph - N/A   Overcast
11:54 AM 50.0 °F - 46.0 °F 86% 29.88 in 7.0 mi West 9.2 mph - N/A   Overcast
12:30 PM 51.1 °F - 45.0 °F 80% 29.86 in 9.0 mi West 11.5 mph - N/A   Overcast
12:54 PM 51.1 °F - 45.0 °F 80% 29.86 in 9.0 mi WSW 8.1 mph - N/A   Overcast
1:01 PM 51.1 °F - 45.0 °F 80% 29.85 in 10.0 mi West 9.2 mph - N/A   Mostly Cloudy
1:11 PM 52.0 °F - 45.0 °F 77% 29.85 in 10.0 mi NW 12.7 mph - N/A   Mostly Cloudy
1:21 PM 51.1 °F - 45.0 °F 80% 29.85 in 10.0 mi WNW 10.4 mph - N/A   Overcast
1:54 PM 48.9 °F - 43.0 °F 80% 29.86 in 10.0 mi WNW 9.2 mph - 0.00 in Rain Light Rain
2:54 PM 50.0 °F - 43.0 °F 77% 29.85 in 10.0 mi NW 11.5 mph 17.3 mph 0.01 in   Mostly Cloudy
3:54 PM 48.9 °F - 41.0 °F 74% 29.87 in 10.0 mi NNW 11.5 mph - N/A   Overcast
4:54 PM 48.0 °F - 41.0 °F 77% 29.90 in 10.0 mi West 6.9 mph - N/A   Overcast
5:54 PM 48.0 °F - 41.0 °F 77% 29.91 in 10.0 mi NNW 8.1 mph - N/A   Overcast
6:13 PM 48.0 °F - 41.0 °F 77% 29.90 in 10.0 mi NNW 6.9 mph - N/A   Overcast
6:54 PM 46.9 °F - 39.9 °F 77% 29.93 in 10.0 mi NW 9.2 mph - N/A   Overcast
7:32 PM 46.0 °F 40.6 °F 41.0 °F 83% 29.92 in 10.0 mi NW 11.5 mph - N/A   Overcast
7:54 PM 46.0 °F 41.4 °F 42.1 °F 86% 29.96 in 10.0 mi NW 9.2 mph - N/A   Overcast
8:10 PM 46.0 °F 41.0 °F 42.1 °F 86% 29.94 in 9.0 mi NNW 10.4 mph - 0.00 in Rain Light Rain
8:54 PM 45.0 °F 39.7 °F 43.0 °F 93% 29.97 in 10.0 mi NNW 10.4 mph - 0.00 in   Overcast
9:02 PM 45.0 °F 38.5 °F 43.0 °F 93% 29.94 in 10.0 mi NW 13.8 mph - N/A   Overcast
9:34 PM 45.0 °F 38.9 °F 43.0 °F 93% 29.95 in 10.0 mi NNW 12.7 mph - N/A   Overcast
9:54 PM 45.0 °F 39.7 °F 43.0 °F 93% 29.99 in 10.0 mi NNW 10.4 mph - 0.00 in   Overcast
10:08 PM 45.0 °F 38.9 °F 43.0 °F 93% 29.96 in 7.0 mi NW 12.7 mph - 0.00 in Rain Light Rain
10:54 PM 45.0 °F 39.3 °F 43.0 °F 93% 30.00 in 5.0 mi NW 11.5 mph - 0.00 in Rain Light Rain
11:54 PM 45.0 °F 41.8 °F 43.0 °F 93% 29.99 in 4.0 mi NW 5.8 mph - 0.07 in Rain Light Rain